sat.trackr.live / text

‹ back to catalog

CONNECTA IOT-10

NORAD 64555 · 2025-135AD

PAYLOAD ACTIVE UNKNOWN

§ Identity

Operator
Country
TURK
Launch date
2025-06-23
Launch site
AFWTR
Launch vehicle
Mass (kg)
RCS (m²)

External: N2YO · Heavens-Above · Gunter

§ Orbital elements

Epoch: 2026-09-21T19:42:00.766944Z

Period
94.67 min
Inclination
97.4758°
Eccentricity
0.0001232
Mean motion
15.21151528 rev/d
Perigee alt
501.5 km
Apogee alt
503.2 km
Semi-major
6,880.5 km
B*
2.3393e-4
RAAN
19.0158°
Arg perigee
50.2185°
Mean anomaly
309.9159°
Rev number
6,954

§ Raw data

CONNECTA IOT-101 64555U 25135AD  26264.82084221  .00005141  00000+0  23393-3 0  99912 64555  97.4758  19.0158 0001232  50.2185 309.9159 15.21151528 69541

JSON: /api/v1/satellites/64555 · /tle

For live sub-satellite position, see the globe view (requires WebGL).

§ Visibility from observer

Set your observer location to see the next 7 days of passes ≥ 10°. The values pass through the URL so the page stays shareable.

No JS? Fill the form by hand. The geolocation button needs JavaScript.

§ Radio — SatNOGS DB

ModeDescriptionDownlinkUplink
GMSK Mode S - GMSK 4k8 AX.25 TLM 2.240 GHz
GMSK Mode U - GMSK 4k8 AX.25 TLM 401.520 MHz

2 transmitters · refreshed weekly from db.satnogs.org